Temp_Advection
nan nan nan nan nan nan nan nan nan nan nan nan nan nan nan nan nan nan nan nan nan nan
nan 0 0 1 1 0 0 0 0 0 0 0 0 -0 -0 -0 -0 0 0 0 0 nan
nan -0 -0 0 0 1 1 0 0 0 0 0 0 0 -0 -0 -0 0 0 0 0 nan
nan -0 0 0 0 0 0 1 0 0 0 0 1 0 0 -0 -0 -0 0 0 0 nan
nan -0 0 0 0 0 0 0 0 0 0 0 1 1 0 -0 -0 -0 0 0 0 nan
nan -0 -0 0 0 0 0 0 0 0 0 0 0 1 0 0 0 -0 0 0 0 nan
nan -1 -1 -0 -0 0 0 0 0 0 0 0 1 1 0 0 0 0 0 0 0 nan
nan -0 -0 -0 -0 -0 -0 -0 -0 -0 0 0 0 1 1 1 0 0 0 0 0 nan
nan -0 -0 -0 0 0 0 0 0 -0 -0 0 0 1 1 1 0 0 0 0 0 nan
nan -0 -0 -0 -0 -0 -0 0 0 0 0 -0 0 0 1 1 0 0 0 0 0 nan
nan -0 -0 -0 -0 -0 -0 -0 -0 0 0 -0 0 0 0 1 1 0 1 1 1 nan
nan -0 -0 -1 -0 -0 -0 -0 -0 0 0 0 0 0 0 0 0 0 1 1 1 nan
nan -0 -0 -0 -0 -0 -1 -0 -0 -0 0 -0 0 0 0 0 0 0 0 1 1 nan
nan nan nan nan nan nan nan nan nan nan nan nan nan nan nan nan nan nan nan nan nan nan
Wind_Speed
18 21 22 21 21 21 20 19 19 20 20 20 19 18 17 16 15 15 13 13 13 11
18 20 22 22 23 23 21 20 20 20 21 21 21 20 19 18 17 16 15 14 13 12
22 23 23 24 24 23 22 21 20 20 21 21 21 21 21 19 18 18 17 15 14 13
26 25 25 25 23 22 22 21 21 21 21 22 22 22 23 21 20 20 19 17 16 14
24 23 24 24 22 21 20 21 22 23 23 22 22 22 23 22 22 22 21 19 18 16
21 22 21 21 20 20 20 20 22 23 24 23 22 22 23 23 23 23 22 21 21 18
19 18 19 19 19 19 19 20 21 22 23 24 24 24 23 23 23 24 24 22 22 20
17 18 18 17 16 17 18 20 22 23 23 23 25 25 25 24 23 24 24 23 23 22
17 17 18 18 18 17 18 20 22 23 24 24 24 24 25 25 24 24 24 24 23 23
16 17 17 17 18 18 19 21 22 22 23 23 23 23 24 25 26 25 25 23 23 23
18 19 19 19 20 20 21 22 23 23 23 24 23 22 23 23 26 26 26 24 22 22
20 20 21 22 23 23 24 24 24 24 24 24 23 22 23 23 25 26 25 23 22 21
21 22 23 23 24 24 25 25 25 25 24 24 24 21 21 21 23 24 23 23 22 21
21 22 22 23 22 24 24 25 25 25 23 22 22 20 18 17 20 21 21 22 21 21
Wind_Direction
304 303 299 297 297 296 298 297 294 293 294 295 296 298 301 305 308 310 312 312 313 312
308 307 305 300 289 289 295 297 295 293 292 291 290 291 292 294 297 300 302 302 303 303
306 305 302 297 293 287 285 287 289 290 289 286 285 284 284 285 288 290 292 293 294 296
304 302 300 298 292 288 281 280 281 284 285 286 285 283 280 280 281 283 284 286 286 287
310 308 305 298 294 286 282 281 283 282 282 285 286 283 281 279 278 278 279 280 279 279
312 310 306 301 294 286 282 284 284 283 283 284 284 283 281 278 277 277 278 278 277 275
321 321 318 311 301 290 282 285 289 290 287 284 280 278 278 277 276 275 276 275 274 272
325 328 329 326 317 305 295 293 295 295 293 289 282 278 276 275 275 274 274 273 272 271
335 334 331 328 323 316 307 300 298 296 294 290 286 281 274 271 271 273 272 271 271 268
333 336 336 333 329 323 315 309 304 300 296 294 291 286 280 272 269 269 271 271 268 266
327 328 328 328 329 326 323 321 316 312 306 299 294 287 282 276 269 265 266 267 267 265
319 321 324 325 327 327 326 325 321 318 313 308 304 294 284 276 268 262 260 265 267 263
314 316 319 321 323 324 325 325 322 319 315 312 309 302 290 277 269 261 257 259 262 267
311 313 316 318 321 321 322 323 323 322 322 317 313 310 299 283 271 266 257 260 263 268
Height
1534 1533 1531 1530 1528 1527 1526 1524 1523 1521 1520 1519 1517 1516 1514 1512 1510 1508 1506 1505 1503 1501
1531 1528 1525 1523 1522 1521 1521 1519 1518 1516 1515 1514 1513 1511 1510 1508 1507 1505 1503 1501 1500 1498
1525 1522 1519 1517 1516 1515 1514 1513 1511 1510 1509 1507 1506 1505 1504 1503 1501 1500 1499 1497 1496 1495
1520 1516 1513 1510 1509 1508 1507 1507 1505 1504 1503 1502 1500 1499 1498 1497 1496 1495 1493 1492 1491 1490
1513 1509 1506 1504 1503 1502 1501 1500 1500 1499 1497 1496 1495 1494 1493 1492 1491 1490 1489 1487 1485 1484
1507 1503 1501 1499 1496 1495 1495 1495 1495 1493 1492 1491 1490 1488 1487 1487 1486 1485 1484 1483 1482 1480
1503 1500 1496 1493 1492 1490 1490 1490 1489 1488 1486 1484 1483 1482 1481 1480 1479 1479 1478 1476 1476 1475
1500 1497 1494 1491 1489 1487 1486 1485 1484 1482 1480 1478 1476 1475 1474 1473 1472 1471 1471 1470 1470 1469
1496 1493 1491 1488 1486 1485 1483 1480 1478 1476 1473 1471 1469 1468 1466 1466 1465 1464 1463 1463 1463 1463
1494 1491 1488 1486 1483 1481 1477 1475 1472 1469 1467 1464 1462 1460 1459 1457 1457 1457 1457 1457 1457 1457
1491 1488 1486 1484 1481 1477 1474 1470 1467 1464 1460 1457 1455 1453 1451 1450 1448 1449 1449 1450 1450 1450
1487 1485 1483 1479 1476 1472 1469 1465 1461 1458 1454 1450 1448 1446 1444 1442 1441 1441 1442 1444 1444 1445
1483 1480 1477 1474 1471 1468 1464 1460 1456 1452 1448 1443 1440 1439 1437 1435 1434 1434 1435 1437 1438 1438
1479 1476 1473 1470 1467 1463 1460 1456 1452 1448 1443 1439 1435 1433 1431 1429 1427 1428 1430 1432 1433 1434